Regional Weather Roundup
Issued by NWS

Home | Current Version | Previous Version | Graphics & Text | Print | Product List | Glossary Off
Versions: 1 2 3 4 5 6 7 8 9 10 11 12 13 14 15 16 17 18 19 20 21 22 23 24 25 26 27 28 29 30 31 32 33 34 35 36 37 38 39 40 41 42 43 44 45 46 47 48 49 50

000
ASUS43 KTOP 060408
RWRKS

WEATHER ROUNDUP FOR KANSAS
NATIONAL WEATHER SERVICE GOODLAND KS
1100 PM CDT TUE MAY 05 2015

NOTE:  "FAIR" INDICATES FEW OR NO CLOUDS BELOW 12,000 FEET WITH NO
SIGNIFICANT WEATHER AND/OR OBSTRUCTIONS TO VISIBILITY.

KSZ001>006-013>018-027>032-041>047-060500-
NORTHWEST KANSAS

CITY           SKY/WX    TMP DP  RH WIND       PRES   REMARKS
GOODLAND       MOCLDY    57  55  93 S18       29.77F
HAYS           CLOUDY    63  55  77 SE17G24   29.88S
HILL CITY      CLOUDY    61  58  90 S15G23    29.86R
RUSSELL        CLOUDY    62  60  93 SE22      29.88R
$$

KSZ061>065-074>080-084>089-060500-
SOUTHWEST KANSAS

CITY           SKY/WX    TMP DP  RH WIND       PRES   REMARKS
DODGE CITY     CLOUDY    61  58  90 SE16      29.85S
ELKHART          N/A     54  47  77 S9          N/A
GARDEN CITY    LGT RAIN  53  52  96 SE3       29.83F FOG
GREAT BEND     CLOUDY    63  57  82 SE18      29.88S
LIBERAL        CLOUDY    55  52  88 CALM      29.83F
PRATT          CLOUDY    61  59  94 SE15G23   29.90R
$$

KSZ066>073-081>083-090>101-060500-
SOUTHEAST KANSAS

CITY           SKY/WX    TMP DP  RH WIND       PRES   REMARKS
CHANUTE        CLOUDY    67  65  93 E5        30.00F
COFFEYVILLE    CLOUDY    66  64  93 S5        30.00R
HUTCHINSON     LGT RAIN  64  59  83 SE14      29.92S
MEDICINE LODGE   N/A     63  62  97 SE13G21   29.88F
NEWTON         CLOUDY    63  55  77 SE17G24   29.97S
PARSONS        CLOUDY    67  66  97 CALM      30.00F
WICHITA INTL   RAIN      65  62  90 SE21      29.93F
WICHITA JABRA  RAIN      64  62  93 SE20G28   29.95S
WICHITA MCCONL LGT RAIN  64  63  94 SE23G29   29.94F
WINFIELD       HVY RAIN  64  63  96 E10       29.96F FOG
$$

KSZ007>012-019>026-033>040-048>060-102>105-060500-
NORTHEAST KANSAS

CITY           SKY/WX    TMP DP  RH WIND       PRES   REMARKS
CONCORDIA      CLOUDY    63  56  78 S10       29.94S
EMPORIA        LGT RAIN  64  62  93 SE13      30.00R
LAWRENCE       CLOUDY    65  62  90 E8        30.01S
MANHATTAN      LGT RAIN  68  63  84 SE14      29.97R
MARYSVILLE     CLOUDY    64  61  88 SE12      29.98S
OLATHE IND     CLOUDY    65  63  93 E7        30.03S
OLATHE EXE     CLOUDY    66  64  93 E7        30.03S
SALINA         CLOUDY    64  58  80 SE9       29.93F
TOPEKA BILLARD LGT RAIN  65  63  93 SW10      30.03R
TOPEKA FORBES  RAIN      66  63  90 S8        30.02R FOG
$$


USA.gov is the U.S. government's official web portal to all federal, state and local government web resources and services.